Du Bois, PA

1:11 PM EDT on March 30, 2017 (GMT -0400)
Du Bois-Jefferson County

Weather History for KDUJ - January, 2012

Change the Weather History Date:

Saturday, January 7, 2012

  Actual Average Record
Temperature  
Mean Temperature 40 °F 24 °F  
Max Temperature 48 °F 31 °F 61 °F (2008)
Min Temperature 31 °F 17 °F -13 °F (2014)
Degree Days  
Heating Degree Days 25 41  
Month to date heating degree days 267 287  
Since 1 July heating degree days 2158 2949  
Cooling Degree Days 0 0  
Month to date cooling degree days 0 0  
Year to date cooling degree days 0 0  
Moisture  
Dew Point 28 °F    
Average Humidity 62    
Maximum Humidity 78    
Minimum Humidity 45    
Precipitation  
Precipitation 0.00 in 0.10 in 0.82 in (1998)
Month to date precipitation 0.25 0.74  
Sea Level Pressure  
Sea Level Pressure 29.86 in    
Wind  
Wind Speed 11 mph (WSW)    
Max Wind Speed 22 mph    
Max Gust Speed 29 mph    
Visibility 10 miles    
Events      
T = Trace of Precipitation, MM = Missing Value Source: NWS Daily Summary

Daily Weather History Graph

Daily Weather History Graph

Search for Another Location

Airport or City:

Trip Planner

Search our weather history database for the weather conditions in past years. The results will help you decide how hot, cold, wet, or windy it might be!

Date:

Astronomy

Jan. 07, 2012 Rise Set
Actual Time 7:41 AM EST 5:02 PM EST
Civil Twilight 7:10 AM EST 5:33 PM EST
Nautical Twilight 6:35 AM EST 6:07 PM EST
Astronomical Twilight 6:02 AM EST 6:41 PM EST
Moon 3:44 PM EST (1/7) 6:11 AM EST (1/7)
Length of Visible Light 10h 23m
Length of Day
9h 21m
Waxing Gibbous, 97% of the Moon is Illuminated
Jan 7
Waxing Gibbous
Jan 9
Full
Jan 16
Last Quarter
Jan 23
New
Jan 30
First Quarter

Hourly Weather History & Observations

Time (EST) Temp. Windchill Dew Point Humidity Pressure Visibility Wind Dir Wind Speed Gust Speed Precip Events Conditions
12:56 AM 42.1 °F 35.7 °F 28.0 °F 58% 29.76 in 10.0 mi SW 11.5 mph - N/A   Clear
1:56 AM 42.8 °F 36.2 °F 28.4 °F 57% 29.73 in 10.0 mi SW 12.7 mph - N/A   Clear
2:56 AM 42.1 °F 35.7 °F 28.0 °F 58% 29.75 in 10.0 mi SW 11.5 mph - N/A   Clear
3:56 AM 42.1 °F 35.7 °F 28.0 °F 58% 29.73 in 10.0 mi SW 11.5 mph - N/A   Clear
4:56 AM 42.1 °F 36.1 °F 28.0 °F 58% 29.72 in 10.0 mi SW 10.4 mph - N/A   Clear
5:56 AM 41.0 °F 34.7 °F 28.0 °F 60% 29.73 in 10.0 mi SW 10.4 mph - N/A   Clear
6:56 AM 39.0 °F 32.8 °F 28.0 °F 65% 29.74 in 10.0 mi SW 9.2 mph - N/A   Clear
7:56 AM 39.9 °F 32.9 °F 28.9 °F 65% 29.75 in 10.0 mi WSW 11.5 mph - N/A   Clear
8:56 AM 42.1 °F 35.2 °F 32.0 °F 67% 29.77 in 10.0 mi WSW 12.7 mph - N/A   Clear
9:56 AM 44.1 °F 36.8 °F 33.1 °F 65% 29.78 in 10.0 mi WSW 16.1 mph 24.2 mph N/A   Clear
10:56 AM 44.1 °F 35.7 °F 34.0 °F 68% 29.80 in 10.0 mi WSW 20.7 mph 28.8 mph N/A   Clear
11:56 AM 46.4 °F 39.5 °F 35.6 °F 66% 29.78 in 10.0 mi West 17.3 mph 24.2 mph N/A   Mostly Cloudy
12:56 PM 46.4 °F 40.4 °F 32.0 °F 57% 29.78 in 10.0 mi West 13.8 mph 19.6 mph N/A   Scattered Clouds
1:56 PM 46.9 °F - 28.0 °F 48% 29.82 in 10.0 mi WNW 17.3 mph 26.5 mph N/A   Clear
2:56 PM 46.0 °F 39.6 °F 26.1 °F 46% 29.85 in 10.0 mi West 15.0 mph 20.7 mph N/A   Clear
3:56 PM 43.0 °F 36.8 °F 27.0 °F 53% 29.90 in 10.0 mi WNW 11.5 mph - N/A   Clear
4:56 PM 39.9 °F 34.5 °F 27.0 °F 60% 29.94 in 10.0 mi WNW 8.1 mph - N/A   Clear
5:56 PM 37.0 °F 31.6 °F 26.1 °F 65% 29.98 in 10.0 mi WNW 6.9 mph - N/A   Clear
6:56 PM 35.1 °F 28.6 °F 25.0 °F 67% 30.01 in 10.0 mi West 8.1 mph - N/A   Clear
7:56 PM 33.1 °F 26.1 °F 25.0 °F 72% 30.03 in 10.0 mi WNW 8.1 mph - N/A   Clear
8:56 PM 33.1 °F 26.9 °F 26.1 °F 75% 30.04 in 10.0 mi West 6.9 mph - N/A   Clear
9:56 PM 32.0 °F 26.4 °F 26.1 °F 79% 30.06 in 10.0 mi West 5.8 mph - N/A   Mostly Cloudy
10:56 PM 32.0 °F 26.4 °F 27.0 °F 82% 30.06 in 10.0 mi West 5.8 mph - N/A   Overcast
11:56 PM 30.9 °F 27.5 °F 27.0 °F 85% 30.07 in 10.0 mi SW 3.5 mph - N/A   Overcast